[[{"header":{"parameterUnit":"m.s-1","parameterCategory":1,"la1":30.2991,"la2":30.254,"lo1":-89.0895,"lo2":-89.0444,"dy":0.0017,"dx":0.0017,"nx":28,"ny":28,"refTime":"2024-06-24T09:00:00:Z","depth":0,"parameterNumber":2,"parameterNumberName":"U-component_of_WINDS"},"data":[0,0,0,0,0,0,0,0,0,0,0,0,0,0,0,0,0,0,0,0,0,0,0,0,0,0,0,0,0,0,0,0,0,0,0,0,0,0,0,0,0,0,0,0,0,0,0,0,0,0,0,0,0,0,0,0,0,0,2.5033,2.5034,0,2.5127,2.5128,2.513,2.5069,2.5066,2.5063,2.506,2.5164,2.5169,2.5174,0,0,0,0,0,0,0,0,0,0,0,0,0,2.4807,2.4811,2.5033,2.5034,2.5036,2.5127,2.5129,2.513,2.5069,2.5066,2.5062,2.5059,2.5162,2.5168,2.5175,0,0,0,0,0,0,0,0,0,0,0,0,0,2.4904,2.4813,2.5033,2.5016,2.5016,2.5127,2.5129,2.513,2.507,2.5066,2.5061,2.5057,2.516,2.5168,2.5176,2.5311,0,0,2.52,2.5204,0,0,0,0,0,0,0,0,2.4898,2.4912,2.5017,2.5017,2.5017,2.5082,2.5086,2.5191,2.5071,2.505,2.506,2.5055,2.514,2.515,2.5177,2.5316,2.532,2.5201,2.5206,2.521,2.5212,0,0,0,0,0,0,0,2.4892,2.4908,2.5071,2.5019,2.5019,2.5006,2.5015,2.5106,2.5118,2.5051,2.5047,2.5058,2.514,2.5169,2.5179,2.5322,2.5201,2.5208,2.5213,2.5216,2.5577,2.5582,0,0,0,0,0,0,2.4885,2.4902,2.5068,2.5073,2.4946,2.5013,2.5023,2.5065,2.5117,2.512,2.5062,2.5055,2.5158,2.517,2.5182,2.5345,2.521,2.5217,2.5222,2.5572,2.5578,2.5583,0,0,0,0,0,0,2.4881,2.4901,2.5064,2.4987,2.5006,2.5022,2.5069,2.507,2.5099,2.5125,2.5127,2.509,2.5155,2.5171,2.5279,2.5347,2.5221,2.5228,2.5567,2.5574,2.5581,2.567,0,0,0,0,0,0,2.4874,2.4899,2.495,2.4988,2.5011,2.5158,2.5074,2.5074,2.5113,2.5105,2.5152,2.5156,2.5153,2.5267,2.5287,2.5356,2.5234,2.5561,2.557,2.5578,2.5661,2.5679,2.5695,0,0,0,0,0,2.4867,2.4973,2.4952,2.4973,2.5074,2.5161,2.5175,2.5167,2.5118,2.517,2.5186,2.5154,2.5336,2.5279,2.5301,2.5373,2.5557,2.5567,2.5578,2.5654,2.5676,2.5695,0,0,0,0,0,0,2.4944,2.4977,2.4955,2.5077,2.5116,2.5151,2.5216,2.5191,2.5247,2.5238,2.5228,2.5239,2.5352,2.5373,2.5309,2.5507,2.5439,2.5455,2.5489,2.5511,2.5527,2.552,2.5241,0,0,0,0,0,2.4975,2.5041,2.5067,2.5172,2.5193,2.5201,2.5239,2.5229,2.5271,2.5288,2.5313,2.5356,2.5423,2.5468,2.5531,2.5663,2.5674,2.5724,2.5741,2.5755,2.5769,2.5841,2.5864,2.5618,2.5618,2.5618,0,0,2.504,2.5066,2.511,2.5188,2.5218,2.5289,2.5216,2.5294,2.5347,2.5301,2.5404,2.5423,2.5472,2.5592,2.5647,2.5614,2.5839,2.5768,2.5779,2.5786,2.5854,2.5878,2.5898,2.5625,2.5624,2.5623,0,0,2.5195,2.5221,2.5311,2.5342,2.5387,2.5391,2.5413,2.5451,2.5461,2.5564,2.5531,2.5595,2.571,2.5746,2.5779,2.5947,2.592,2.5968,2.6057,2.6127,2.6147,2.6164,2.6224,2.6246,2.5981,2.5981,2.5982,0,2.5272,2.5375,2.5361,2.5442,2.5478,2.5436,2.5529,2.556,2.5624,2.5651,2.5612,2.5755,2.5785,2.5914,2.5954,2.5982,2.6008,2.5963,2.6144,2.6161,2.6177,2.6235,2.6258,2.5987,2.5986,2.5986,2.5985,0,2.5467,2.5539,2.5607,2.5667,2.5711,2.5797,2.5798,2.5844,2.583,2.584,2.5945,2.5979,2.6048,2.6078,2.6066,2.6205,2.6183,2.6145,2.6076,2.6207,2.6261,2.6283,2.5995,2.5993,2.5991,2.599,0,0,2.5676,2.5725,2.5751,2.5777,2.5823,2.588,2.5964,2.6029,2.607,2.6115,2.6187,2.6285,2.6249,2.6287,2.6279,2.6341,2.6473,2.6295,2.6296,2.6328,2.6629,2.6659,2.6684,2.6454,2.6458,2.6462,2.6625,0,2.5834,2.5979,2.5968,2.6106,2.6173,2.6134,2.6208,2.6245,2.6256,2.6316,2.6329,2.6398,2.6345,2.6368,2.6427,2.6444,2.6533,2.6432,2.6523,2.6527,2.6513,2.6713,2.6744,2.6897,2.6646,2.665,2.6653,0,2.6039,2.6088,2.6232,2.6267,2.6295,2.6361,2.642,2.6477,2.6519,2.6522,2.6564,2.6545,2.6633,2.6561,2.6682,2.6613,2.665,2.6664,2.6669,2.6679,2.6598,2.6729,2.6946,2.6969,2.6686,2.6683,2.6681,0,2.6178,2.6281,2.638,2.6404,2.6447,2.6494,2.6515,2.6552,2.6592,2.6644,2.667,2.6732,2.6767,2.6817,2.6817,2.6764,2.694,2.6868,2.6947,2.6947,2.6987,2.6985,2.7214,2.7009,2.7008,2.7008,2.7007,0,2.6356,2.6446,2.6442,2.6504,2.6603,2.6591,2.6691,2.6707,2.674,2.6805,2.6775,2.6838,2.6833,2.6896,2.6897,2.6997,2.7013,2.702,2.702,2.7024,2.7023,2.7048,2.7038,2.7014,2.7013,2.7012,2.701,0,2.6529,2.653,2.6636,2.6667,2.6677,2.6749,2.6777,2.6836,2.6843,2.6926,2.6944,2.6957,2.703,2.7034,2.7119,2.7119,2.7242,2.7229,2.7227,2.7225,2.7305,2.7298,2.756,2.7594,2.7365,2.7367,2.7369,0,2.6644,2.6712,2.6749,2.6789,2.6812,2.6877,2.6917,2.6908,2.695,2.7002,2.7056,2.7125,2.718,2.7299,2.7317,2.7382,2.7372,2.7459,2.7382,2.7383,2.7374,2.7371,2.7378,2.7475,2.7477,2.7479,2.7481,0,2.6848,2.6845,2.6901,2.6959,2.7006,2.7051,2.7093,2.7128,2.7124,2.7174,2.7247,2.7289,2.7374,2.7445,2.7508,2.7531,2.7507,2.7505,2.7527,2.7532,2.7529,2.7533,2.727,2.7499,2.7497,2.7496,2.7495,2.7494,2.6996,2.7054,2.7089,2.7154,2.7184,2.7223,2.728,2.7293,2.7353,2.7419,2.7411,2.7492,2.7532,2.7614,2.7642,2.7707,2.7678,2.771,2.7718,2.7726,2.7735,2.7517,2.7719,2.7718,2.7718,2.7717,2.7717,0,2.72,2.7219,2.7278,2.7337,2.7388,2.7356,2.7401,2.7446,2.7517,2.7556,2.761,2.7694,2.7761,2.7784,2.785,2.7898,2.7888,2.7915,2.7913,2.7919,2.7757,2.7732,2.7922,2.7922,2.7922,2.7922,2.7922,2.7922,2.7311,2.7408,2.7409,2.752,2.754,2.7617,2.7646,2.7683,2.7713,2.7807,2.7862,2.7875,2.7908,2.7976,2.8037,2.8042,2.8068,2.8101,2.8102,2.7951,2.793,2.791,2.7887,2.8106,2.8107,2.8258,2.8259,2.826]},{"header":{"parameterUnit":"m.s-1","parameterCategory":1,"la1":30.2991,"la2":30.254,"lo1":-89.0895,"lo2":-89.0444,"dy":0.0017,"dx":0.0017,"nx":28,"ny":28,"refTime":"2024-06-24T09:00:00:Z","depth":0,"parameterNumber":3,"parameterNumberName":"V-component_of_WINDS"},"data":[0,0,0,0,0,0,0,0,0,0,0,0,0,0,0,0,0,0,0,0,0,0,0,0,0,0,0,0,0,0,0,0,0,0,0,0,0,0,0,0,0,0,0,0,0,0,0,0,0,0,0,0,0,0,0,0,0,0,-0.075,-0.075,0,-0.0841,-0.0842,-0.0843,-0.0915,-0.0915,-0.0916,-0.0917,-0.1011,-0.1012,-0.1014,0,0,0,0,0,0,0,0,0,0,0,0,0,-0.0638,-0.064,-0.0749,-0.0751,-0.0752,-0.084,-0.0842,-0.0843,-0.0915,-0.0916,-0.0916,-0.0917,-0.101,-0.1012,-0.1014,0,0,0,0,0,0,0,0,0,0,0,0,0,-0.0704,-0.064,-0.0749,-0.0798,-0.0803,-0.084,-0.0842,-0.0843,-0.0914,-0.0916,-0.0917,-0.0918,-0.1009,-0.1012,-0.1015,-0.101,0,0,-0.1023,-0.1024,0,0,0,0,0,0,0,0,-0.07,-0.0708,-0.079,-0.0795,-0.0801,-0.0867,-0.0837,-0.0899,-0.0914,-0.0872,-0.0917,-0.0918,-0.0962,-0.0969,-0.0984,-0.1015,-0.1019,-0.1023,-0.1025,-0.1026,-0.1027,0,0,0,0,0,0,0,-0.0695,-0.0704,-0.0786,-0.0791,-0.0798,-0.0816,-0.0826,-0.0849,-0.091,-0.0876,-0.0882,-0.0891,-0.0965,-0.0981,-0.0986,-0.102,-0.1023,-0.1026,-0.1027,-0.1028,-0.1052,-0.1051,0,0,0,0,0,0,-0.0683,-0.07,-0.0783,-0.0788,-0.0752,-0.0817,-0.0829,-0.0845,-0.091,-0.0921,-0.089,-0.0894,-0.0976,-0.0983,-0.099,-0.0989,-0.1026,-0.1029,-0.103,-0.1053,-0.1052,-0.1051,0,0,0,0,0,0,-0.068,-0.069,-0.0779,-0.0746,-0.0758,-0.0818,-0.0835,-0.0846,-0.0862,-0.0921,-0.0932,-0.0895,-0.0977,-0.0986,-0.1005,-0.0993,-0.103,-0.1032,-0.1055,-0.1053,-0.1052,-0.0987,0,0,0,0,0,0,-0.0677,-0.0688,-0.0687,-0.0745,-0.076,-0.0792,-0.0835,-0.0847,-0.0866,-0.0872,-0.0928,-0.0938,-0.0978,-0.1,-0.1007,-0.0998,-0.1035,-0.1056,-0.1054,-0.1052,-0.099,-0.0983,-0.0977,0,0,0,0,0,-0.0672,-0.0665,-0.0686,-0.0696,-0.0759,-0.0791,-0.08,-0.0845,-0.0865,-0.0864,-0.0902,-0.0937,-0.0993,-0.1001,-0.101,-0.1001,-0.1057,-0.1054,-0.1052,-0.0993,-0.0985,-0.0977,0,0,0,0,0,0,-0.0604,-0.0674,-0.0698,-0.0709,-0.0744,-0.0803,-0.0804,-0.0835,-0.0865,-0.0869,-0.0925,-0.0937,-0.095,-0.0978,-0.0985,-0.1,-0.103,-0.1029,-0.0982,-0.0974,-0.0968,-0.096,-0.1037,0,0,0,0,0,-0.0591,-0.061,-0.067,-0.0674,-0.069,-0.0743,-0.0759,-0.0792,-0.083,-0.0844,-0.0884,-0.092,-0.0946,-0.0962,-0.0989,-0.0995,-0.1008,-0.0993,-0.0986,-0.0981,-0.0979,-0.0985,-0.0979,-0.1044,-0.1044,-0.1044,0,0,-0.0562,-0.0603,-0.0612,-0.0661,-0.0692,-0.0711,-0.0755,-0.0774,-0.0789,-0.0847,-0.0867,-0.0897,-0.0941,-0.0953,-0.0961,-0.0977,-0.0965,-0.0978,-0.0973,-0.0975,-0.0982,-0.0975,-0.097,-0.1042,-0.1042,-0.1043,0,0,-0.0521,-0.0553,-0.056,-0.059,-0.0635,-0.0671,-0.0673,-0.0727,-0.075,-0.0771,-0.0815,-0.0834,-0.0877,-0.0906,-0.0927,-0.0896,-0.0929,-0.0904,-0.087,-0.0874,-0.0869,-0.0865,-0.0854,-0.0849,-0.0902,-0.0902,-0.0902,0,-0.048,-0.051,-0.056,-0.0575,-0.0596,-0.065,-0.0658,-0.0684,-0.0736,-0.0749,-0.0766,-0.0822,-0.0856,-0.0875,-0.0868,-0.0883,-0.0886,-0.0897,-0.0866,-0.0862,-0.0859,-0.0849,-0.0844,-0.0899,-0.0899,-0.09,-0.09,0,-0.0458,-0.0478,-0.0478,-0.0527,-0.0548,-0.0559,-0.061,-0.0626,-0.0656,-0.069,-0.0711,-0.0753,-0.0789,-0.0796,-0.0827,-0.082,-0.0829,-0.0855,-0.0886,-0.0848,-0.084,-0.0836,-0.0894,-0.0895,-0.0896,-0.0897,0,0,-0.0375,-0.0451,-0.045,-0.0473,-0.0527,-0.0544,-0.0558,-0.0594,-0.0606,-0.064,-0.0653,-0.0689,-0.0713,-0.0737,-0.0771,-0.0775,-0.0748,-0.0801,-0.0803,-0.0789,-0.0743,-0.0722,-0.0717,-0.077,-0.0769,-0.0769,-0.0739,0,-0.0342,-0.0369,-0.0414,-0.0428,-0.0447,-0.0499,-0.0511,-0.0546,-0.0578,-0.06,-0.0636,-0.066,-0.0691,-0.0705,-0.0711,-0.0749,-0.0739,-0.0752,-0.0782,-0.0783,-0.0769,-0.0713,-0.0691,-0.0661,-0.0736,-0.0736,-0.0735,0,-0.0306,-0.0337,-0.0352,-0.0405,-0.0415,-0.0425,-0.0461,-0.0481,-0.0522,-0.0545,-0.0571,-0.0608,-0.0626,-0.0654,-0.0679,-0.0687,-0.0702,-0.0722,-0.0723,-0.0727,-0.0756,-0.0715,-0.0653,-0.0648,-0.0731,-0.0731,-0.0731,0,-0.0244,-0.0289,-0.0304,-0.0322,-0.0384,-0.039,-0.0416,-0.0458,-0.0477,-0.0509,-0.0521,-0.0555,-0.0573,-0.0598,-0.0643,-0.0659,-0.0663,-0.0695,-0.0683,-0.0682,-0.0681,-0.068,-0.062,-0.0691,-0.0691,-0.0692,-0.0692,0,-0.0201,-0.0208,-0.0277,-0.0286,-0.0295,-0.0347,-0.0355,-0.0387,-0.0423,-0.0439,-0.0487,-0.0501,-0.056,-0.0581,-0.0617,-0.0632,-0.064,-0.0659,-0.0669,-0.0655,-0.0652,-0.0665,-0.0668,-0.069,-0.0691,-0.0691,-0.0691,0,-0.0133,-0.0179,-0.0199,-0.0256,-0.0271,-0.0275,-0.0324,-0.0335,-0.037,-0.039,-0.0398,-0.0453,-0.048,-0.0528,-0.0569,-0.0593,-0.0601,-0.0618,-0.0587,-0.0593,-0.0578,-0.0578,-0.0523,-0.0518,-0.0593,-0.0592,-0.0591,0,-0.0103,-0.0109,-0.0167,-0.0181,-0.0205,-0.0228,-0.0247,-0.0298,-0.0316,-0.0363,-0.0368,-0.0399,-0.0427,-0.0468,-0.0512,-0.0544,-0.0561,-0.0539,-0.0566,-0.0551,-0.056,-0.0559,-0.0559,-0.0533,-0.0532,-0.0531,-0.053,0,-0.0044,-0.0066,-0.0092,-0.0125,-0.0146,-0.0175,-0.0207,-0.0216,-0.0274,-0.0292,-0.0321,-0.0342,-0.0384,-0.0414,-0.0452,-0.048,-0.0514,-0.0521,-0.052,-0.0506,-0.0488,-0.0497,-0.057,-0.0522,-0.0523,-0.0524,-0.0524,-0.0524,0.0007,-0.0001,-0.0043,-0.007,-0.0099,-0.0127,-0.014,-0.0177,-0.0201,-0.0239,-0.0268,-0.0294,-0.0335,-0.039,-0.0415,-0.0437,-0.0453,-0.0451,-0.0451,-0.0449,-0.0444,-0.0485,-0.0444,-0.0444,-0.0445,-0.0445,-0.0445,0,0.0064,0.0034,0.001,-0.0032,-0.0053,-0.0084,-0.0121,-0.0136,-0.0158,-0.0193,-0.022,-0.0252,-0.0282,-0.0328,-0.0361,-0.0369,-0.0386,-0.0376,-0.0376,-0.0381,-0.0428,-0.0425,-0.0362,-0.0362,-0.0362,-0.0362,-0.0362,-0.0362,0.0091,0.0076,0.0048,0.0018,-0.0012,-0.0037,-0.0056,-0.0082,-0.011,-0.0144,-0.0169,-0.0199,-0.0238,-0.0275,-0.0303,-0.0316,-0.0326,-0.0311,-0.0328,-0.0371,-0.0378,-0.0386,-0.0383,-0.0313,-0.0313,-0.0281,-0.028,-0.028]}]]